Regional Weather Roundup
Issued by NWS

Home | Current Version | Previous Version | Graphics & Text | Print | Product List | Glossary On
Versions: 1 2 3 4 5 6 7 8 9 10 11 12 13 14 15 16 17 18 19 20 21 22 23 24 25 26 27 28 29 30 31 32 33 34 35 36 37 38 39 40 41 42 43 44 45 46 47 48 49 50
000
ASUS45 KBOU 241207
RWRCO

WEATHER ROUNDUP FOR COLORADO
NATIONAL WEATHER SERVICE DENVER/BOULDER CO
500 AM MST WED DEC 24 2014

NOTE: "FAIR" INDICATES FEW OR NO CLOUDS BELOW 12000 FEET WITH NO
SIGNIFICANT WEATHER AND/OR OBSTRUCTIONS TO VISIBILITY.

COZ001>005-013-030-031-241300-
...NORTHWEST COLORADO...

CITY           SKY/WX    TMP DP  RH WIND       PRES   REMARKS
CRAIG          FAIR       0  -4  83 CALM      30.19F
HAYDEN         FAIR       9   3  78 E12       30.17R WCI  -6
MEEKER         FAIR       3  -3  76 CALM      30.19F
MOUNT WERNER   NOT AVBL
STEAMBOAT SPGS MOCLDY     4   1  88 CALM      30.18S
WALDEN         FAIR       1  -6  71 SE7       30.08S WCI -11
$$

COZ006>008-011-241300-
...WEST CENTRAL VALLEYS...

CITY           SKY/WX    TMP DP  RH WIND       PRES   REMARKS
GRAND JUNCTION FAIR      19  13  77 SE6       30.23F WCI  11
MONTROSE       FAIR      13   7  77 SE8       30.25F WCI   2
EAGLE          FAIR      -2  -6  84 CALM      30.28F
RIFLE          FAIR      12   5  73 E6        30.26F WCI   3
DELTA          FAIR      17   8  70 NE6       30.26F WCI   8
NUCLA          FAIR      16   9  73 E7        30.24S WCI   6
$$

COZ017>023-064>068-241300-
...SOUTHWEST COLORADO...

CITY           SKY/WX    TMP DP  RH WIND       PRES   REMARKS
DURANGO        FAIR       9   5  84 CALM      30.13S
CORTEZ         FAIR      16   9  74 NE8       30.15F WCI   5
PAGOSA SPRINGS FAIR       7  -3  61 CALM      30.10S
TELLURIDE      FAIR       7  -2  68 E5        30.14S WCI  -2
WOLF CREEK PAS FAIR      14  -8  37 MISG      30.02S
$$

COZ009-010-012-014-032>034-037-058>063-241300-
...CENTRAL COLORADO...

CITY           SKY/WX    TMP DP  RH WIND       PRES   REMARKS
ASPEN          FAIR      -1  -7  75 SW8       30.15F WCI -15
BUENA VISTA    FAIR      18  -3  38 NW28G37   30.00F WCI   0
COPPER MTN     FAIR       7   0  72 MISG      30.02S
BERTHOUD PASS  NOT AVBL
COTTONWOOD PAS FAIR      21  -4  33 W5        29.98S WCI  15
GUNNISON       FAIR     -13 -27  48 CALM      30.23S
KREMMLING      FAIR      -2  -6  84 N3        30.19F
LEADVILLE      FAIR       2  -6  69 N16       30.05S WCI -18
SALIDA         FAIR      15   0  51 NW7       30.13S WCI   5
SUNLIGHT         N/A    N/A N/A N/A MISG      30.09S
WILKERSON PASS FAIR      14   5  67 N15G25    29.94R WCI  -1
$$

COZ069>075-241300-
...SAN LUIS VALLEY/SANGRE DE CRISTO MOUNTAINS...

CITY           SKY/WX    TMP DP  RH WIND       PRES   REMARKS
ALAMOSA        FAIR       0  -6  76 SW9       30.09F WCI -15
LA VETA PASS   FAIR       3  -6  66 SW10G16   29.92R WCI -12
SAGUACHE       FAIR      12   1  62 NW15      30.08R WCI  -4
$$

COZ035-036-038>040-241300-
...NORTHERN COLORADO FRONT RANGE...

CITY           SKY/WX    TMP DP  RH WIND       PRES   REMARKS
DENVER INTL AP FAIR      21   4  47 S12       29.93F WCI   9
DMNS CITY PARK   N/A     21   2  45 S7        29.93F WCI  12
AURORA         PTCLDY    20   2  47 S13       29.94F WCI   7
FRONT RANGE AP FAIR      19  10  68 S16       29.94F WCI   5
ERIE MUNI ARPT   N/A     12   8  86 CALM      29.94F
BOULDER MUN AP FAIR      19  10  68 S3        29.92F
CENTENNIAL     FAIR      17   5  59 S7        29.93F WCI   8
BROOMFIELD     FAIR      21   9  58 CALM      29.92F
FORT COLLINS   FAIR      14   7  73 CALM      29.94F
LONGMONT       FAIR      14   9  78 S3        29.95F
$$

COZ041-046-047-076>085-087-088-241300-
...PIKES PEAK/PALMER DIVIDE AND SOUTHERN FOOTHILLS...

CITY           SKY/WX    TMP DP  RH WIND       PRES   REMARKS
COLO. SPRINGS  FAIR      11   1  64 N8        29.99F WCI  -1
A. F. ACADEMY  FAIR       3  -4  72 N12       29.96F WCI -13
ELLICOTT       NOT AVBL
FALCON         FAIR      12   0  58 W9        29.96F WCI   0
FORT CARSON    FAIR      13   4  67 NW12      29.97F WCI  -1
LIMON          FAIR      10   4  76 N3        29.98F
MONUMENT HILL  FAIR      12   0  57 SW9       29.92F WCI   0
TRINIDAD         N/A    N/A N/A N/A MISG      30.02F
$$

COZ042>045-048>051-090-091-241300-
...NORTHEAST COLORADO...

CITY           SKY/WX    TMP DP  RH WIND       PRES   REMARKS
GREELEY ARPT   FAIR       7  -2  66 SE5       29.93F WCI  -2
AKRON          FAIR      15   8  73 W10       29.95F WCI   2
BURLINGTON     FAIR      15   8  73 W12       29.98F WCI   2
WRAY           FAIR      12   9  85 W8        29.98F WCI   1
STERLING       FAIR      12   9  85 SW6       29.97F WCI   3
HOLYOKE        FAIR      18  12  79 W8        29.96F WCI   7
FORT MORGAN    FAIR      11   6  81 W7        29.98F WCI   0
$$

COZ086-089-092>099-241300-
...SOUTHEAST COLORADO...

CITY           SKY/WX    TMP DP  RH WIND       PRES   REMARKS
PUEBLO         FAIR       8   5  87 CALM      30.03F
LA JUNTA       FAIR      18  11  74 W10       30.03F WCI   6
LAMAR          FAIR      19  13  77 W9        30.03F WCI   8
SPRINGFIELD      N/A     14   9  80 W10       30.03F WCI   1
$$



USA.gov is the U.S. government's official web portal to all federal, state and local government web resources and services.